Overview Statistics Trail Chart Weather Telemetry Raw packets
 

This is the latest recevied weather packets stored in our database for station/object SR4DIG-13. If no packets are shown the sender has not sent any weather packets the latest 10 day(s).

<< 31 32 33 34 35 36 37 >>
Time Temp. Humidity Pressure Rain* Wind** Luminosity Snow
1788417645 26.11° C 49% 1017.1 hPa 0 mm - - -
1788417345 26.11° C 49% 1017.1 hPa 0 mm - - -
1788417043 26.67° C 49% 1017 hPa 0 mm - - -
1788416742 26.11° C 51% 1017.1 hPa 0 mm - - -
1788416441 25° C 53% 1017 hPa 0 mm - - -
1788416140 24.44° C 55% 1017.1 hPa 0 mm - - -
1788415840 23.89° C 55% 1017.2 hPa 0 mm - - -
1788415539 23.89° C 55% 1017.1 hPa 0 mm - - -
1788415238 23.89° C 55% 1017.2 hPa 0 mm - - -
1788414937 23.89° C 57% 1017.2 hPa 0 mm - - -
1788414636 23.89° C 58% 1017.2 hPa 0 mm - - -
1788414335 23.33° C 60% 1017.2 hPa 0 mm - - -
1788414034 22.78° C 62% 1017.2 hPa 0 mm - - -
1788413734 21.67° C 64% 1017.2 hPa 0 mm - - -
1788413432 21.11° C 67% 1017.3 hPa 0 mm - - -
1788413131 20° C 71% 1017.2 hPa 0 mm - - -
1788412830 19.44° C 74% 1017.4 hPa 0 mm - - -
1788412530 16.67° C 78% 1017.2 hPa 0 mm - - -
1788412229 15.56° C 80% 1017.2 hPa 0 mm - - -
1788411648 16.11° C 82% 1017.3 hPa 0 mm - - -
1788411347 16.11° C 83% 1017.4 hPa 0 mm - - -
1788411046 15.56° C 85% 1017.4 hPa 0 mm - - -
1788410745 15° C 87% 1017.4 hPa 0 mm - - -
1788410444 13.89° C 88% 1017.4 hPa 0 mm - - -
1788410144 13.89° C 88% 1017.3 hPa 0 mm - - -

* Rain latest hour (hover to see other rain measurements)
** Current wind speed in m/s (hover to see current wind gust speed)